Vertical_Velocity
-4 11 -4 -13 -5 -6 -0 3 -1 -5 -7 11 -3 -2 -6 -5 4 0 -3 2 1 2 1 1 1 1 1 1 2 -1 -0 0 1 2 -1 -2 -4 -1 1 -1 -4 -2 -1 -0
21 -3 -14 0 3 4 3 2 -3 0 1 6 -0 -6 -5 -0 -6 -1 -1 -0 1 1 4 1 0 1 2 3 2 1 1 0 2 -0 1 -1 0 0 1 -3 -3 -1 -1 -1
-0 -28 5 8 2 10 -2 -1 -1 -8 1 2 6 -5 -0 -9 3 3 -4 2 4 -2 1 2 2 1 3 2 1 0 -1 1 -2 2 1 0 -0 -1 -1 -1 1 -0 -1 -2
-4 -14 4 5 -1 9 5 -4 -1 1 4 -0 4 -7 3 0 1 2 0 2 0 2 3 3 2 2 1 -0 0 0 -0 -1 -1 1 -1 -1 -2 -1 -1 -2 -1 -2 -1 -2
-19 2 2 8 -22 1 -16 0 -4 -1 0 2 2 8 -24 3 5 1 -0 1 1 -2 -0 1 2 2 2 1 1 1 -0 -1 1 2 -0 -1 -3 -4 -2 -2 -0 -2 -2 -3
-11 -4 7 -21 -5 -1 -3 7 4 2 -0 5 -8 5 -11 -1 -10 2 2 2 -0 2 2 2 2 2 -0 0 0 2 2 0 0 -1 -1 0 1 0 -0 -1 -2 -2 -3 -2
4 -5 -6 -1 12 11 9 2 4 7 4 -6 0 9 -14 3 1 -3 -3 0 0 -0 2 1 2 0 -0 1 1 1 2 -0 -0 0 -0 -2 -1 -1 -0 -1 -2 0 -1 -1
-2 13 0 -4 -1 -10 -4 -11 -8 -5 -3 -6 1 -3 -4 2 0 1 -1 -2 1 1 0 0 1 1 1 1 1 1 1 -1 -1 -0 -1 -1 -1 -1 -1 -2 -2 -2 -2 -2
1 -3 6 1 -1 -10 -5 6 1 0 1 2 -3 -1 10 1 2 2 2 3 1 -0 1 1 2 1 -1 0 1 -0 -1 -0 -1 -1 -0 -0 -0 -2 -2 -2 -2 -2 -2 -1
-6 -1 -0 1 -3 -0 1 -5 6 2 -0 1 5 -1 3 3 2 1 3 0 1 2 2 3 1 1 2 2 -1 0 0 -1 -1 -1 -1 -1 -2 -1 -2 -2 -1 -3 -2 -2
-1 3 -6 8 0 -7 5 1 2 3 1 1 -0 4 3 1 -0 -1 -1 -1 -2 1 -0 -1 1 2 1 0 1 0 -1 -1 0 0 -1 -1 -1 -1 -2 -2 -2 -1 -2 -3
-8 -3 0 4 4 -5 -5 -6 -1 1 4 -0 4 10 -0 0 -0 -1 -0 -2 0 -2 -0 -1 1 -0 -0 1 1 1 -0 -0 -0 -2 -1 -1 -1 -1 -2 -3 -1 -1 -1 -1
-5 -1 1 6 -0 -1 -0 -2 -2 1 2 -5 3 7 1 0 1 1 -1 1 1 -0 2 1 1 -1 1 2 1 -1 0 -0 -1 -1 -1 -1 -1 -2 -1 -1 -3 -2 -2 -2
4 1 0 -6 -8 -7 3 2 0 1 6 -6 -7 2 5 2 0 2 2 0 -1 -1 -1 1 2 -0 2 1 1 0 -0 -1 -0 -0 0 -0 -1 -1 -3 -2 -2 -2 -2 -2
7 3 2 -0 1 1 -6 -3 -1 4 -9 6 -10 -1 -5 -2 -2 -2 -3 0 2 1 1 1 -0 0 1 0 1 1 0 0 1 -0 -1 -1 -3 -3 -1 -2 -1 -1 -2 -3
-0 -1 0 -0 -0 0 1 0 0 -0 -1 3 3 -4 -0 0 2 2 -1 0 0 -1 0 1 1 1 0 1 1 0 1 1 0 -1 -1 -2 -2 -0 -1 -0 -1 -3 -3 -5
2 1 1 2 -0 1 6 -11 -3 -3 0 -1 3 -20 -2 2 1 -2 1 -0 -1 -0 -0 0 -1 1 1 2 1 0 2 1 -1 -1 -2 -1 -2 -1 -1 -1 -2 -4 -6 -4
-1 3 1 1 2 3 2 -0 -2 -3 -5 -0 3 -2 1 -3 -0 4 4 -2 2 2 1 1 0 1 1 1 -0 2 -0 0 -0 -1 -1 -2 -1 0 -1 -4 -4 -3 -2 -1
0 1 2 2 -1 -6 -6 -1 -1 -3 -18 -4 -1 -2 0 4 -4 4 -2 7 2 3 2 1 2 0 0 -0 0 1 1 -0 -0 -1 -2 -1 0 -1 -3 -2 -3 -3 -2 -2
-0 2 3 0 2 -0 6 1 -1 0 -5 -1 1 -2 -2 2 4 4 1 2 2 0 -0 -1 -1 -1 0 1 1 1 -0 0 -1 -2 -1 0 -1 -3 -3 -2 -2 -2 1 -1
0 1 -2 -0 -0 -7 3 0 -1 9 8 0 -1 -1 -2 -1 4 -1 -0 -1 0 1 -0 -0 1 1 1 -0 0 -0 -1 -1 -3 1 -0 -1 -2 -2 -1 -3 -0 0 -2 -4
-6 -5 -1 4 2 -5 -1 2 7 5 2 -1 1 -1 4 -1 3 2 1 -1 -1 -0 -0 1 -1 -1 -0 0 -1 -2 -1 -1 1 -1 -1 -3 -3 -3 -0 1 -2 -5 -4 -2
8 -6 -7 -2 -6 2 1 0 -1 -1 -3 2 -3 1 -1 -2 0 1 -0 -0 0 -0 -1 -1 -1 -1 -1 -1 -0 0 -1 0 1 -2 -4 -4 -2 -0 1 -3 -5 -4 -1 -1
0 -0 0 2 3 0 1 0 -2 1 -2 1 2 0 2 -3 1 0 0 -0 -0 -0 -0 -0 -1 -1 -1 0 1 1 -0 -2 -4 -3 -3 0 -0 -2 -4 -3 -2 -1 -2 -1
2 -0 -2 0 2 1 -0 -0 -1 1 1 0 2 1 -1 -1 2 1 1 1 0 0 -1 0 1 1 -0 0 0 -1 -3 -2 -2 -2 1 -0 -3 -4 -5 -1 -2 -2 1 4
-2 -3 -2 -2 -4 -3 -3 -0 0 0 1 1 -2 -2 -0 -0 -2 -1 0 1 0 -0 -1 0 0 1 -1 0 -2 -3 -2 -2 -0 1 -1 -3 -4 -3 -2 -3 -5 3 1 4
Height
1471 1476 1469 1466 1470 1462 1452 1451 1452 1446 1444 1450 1454 1454 1449 1450 1451 1451 1452 1453 1458 1462 1465 1464 1464 1465 1465 1465 1465 1466 1468 1470 1472 1474 1476 1476 1477 1478 1478 1479 1482 1483 1483 1482
1469 1466 1460 1460 1463 1464 1459 1448 1440 1440 1443 1453 1451 1448 1443 1442 1445 1444 1446 1450 1455 1461 1463 1463 1465 1466 1466 1466 1466 1467 1469 1471 1473 1473 1473 1475 1476 1478 1479 1480 1482 1482 1482 1481
1460 1451 1457 1454 1463 1460 1449 1445 1435 1442 1444 1450 1451 1448 1440 1437 1438 1439 1443 1445 1452 1458 1461 1463 1465 1465 1465 1464 1465 1467 1469 1471 1472 1474 1474 1475 1476 1478 1480 1481 1482 1482 1481 1480
1457 1449 1459 1448 1456 1458 1454 1435 1434 1440 1447 1455 1445 1445 1418 1418 1433 1438 1439 1442 1450 1456 1461 1463 1464 1464 1464 1464 1466 1468 1470 1471 1474 1475 1475 1477 1478 1479 1480 1482 1482 1481 1480 1478
1446 1444 1455 1442 1448 1446 1446 1433 1435 1442 1446 1457 1450 1451 1424 1414 1423 1428 1434 1440 1448 1454 1458 1462 1463 1463 1463 1465 1467 1468 1470 1472 1474 1474 1475 1476 1477 1479 1480 1481 1480 1480 1478 1476
1440 1438 1439 1433 1441 1442 1435 1427 1436 1442 1448 1457 1439 1438 1420 1414 1416 1416 1430 1439 1447 1453 1457 1461 1462 1462 1463 1465 1468 1469 1471 1472 1473 1475 1476 1477 1478 1479 1479 1480 1479 1478 1476 1474
1437 1438 1437 1428 1430 1438 1436 1435 1453 1460 1465 1443 1421 1428 1415 1414 1417 1418 1428 1437 1445 1452 1456 1459 1460 1462 1464 1466 1467 1470 1471 1472 1474 1475 1476 1477 1478 1479 1479 1478 1478 1476 1474 1472
1429 1433 1436 1423 1427 1424 1429 1424 1423 1434 1436 1428 1431 1435 1413 1413 1418 1420 1428 1436 1444 1450 1454 1457 1460 1462 1464 1466 1468 1470 1471 1472 1474 1475 1476 1477 1477 1478 1477 1477 1476 1474 1472 1470
1422 1422 1413 1414 1423 1422 1429 1421 1409 1411 1407 1410 1420 1414 1414 1414 1419 1423 1425 1433 1440 1446 1451 1455 1459 1461 1463 1465 1468 1469 1470 1472 1473 1474 1475 1476 1477 1477 1476 1475 1474 1472 1470 1467
1428 1421 1417 1415 1415 1423 1418 1412 1421 1411 1426 1425 1410 1409 1406 1414 1414 1420 1424 1430 1438 1444 1449 1454 1458 1460 1463 1464 1466 1468 1470 1471 1473 1474 1475 1476 1476 1475 1474 1473 1471 1469 1466 1464
1427 1433 1424 1417 1410 1416 1426 1422 1415 1403 1406 1409 1407 1407 1397 1408 1412 1416 1420 1427 1434 1440 1446 1451 1456 1459 1461 1463 1464 1466 1468 1471 1472 1473 1474 1474 1474 1473 1472 1470 1468 1466 1464 1461
1420 1415 1418 1412 1407 1407 1412 1421 1411 1412 1421 1411 1411 1412 1406 1410 1413 1415 1418 1424 1432 1439 1444 1449 1453 1456 1459 1461 1463 1465 1468 1470 1471 1472 1472 1472 1472 1471 1469 1467 1465 1463 1461 1459
1404 1397 1407 1416 1417 1419 1419 1413 1409 1408 1404 1409 1415 1409 1405 1409 1413 1416 1418 1423 1430 1437 1442 1447 1451 1454 1457 1459 1461 1464 1466 1468 1469 1470 1470 1470 1469 1468 1467 1464 1462 1460 1458 1456
1404 1393 1385 1390 1387 1406 1418 1414 1408 1412 1414 1409 1404 1402 1407 1409 1412 1416 1419 1424 1430 1435 1440 1444 1448 1452 1456 1458 1460 1462 1464 1465 1467 1468 1468 1468 1467 1466 1464 1461 1459 1457 1455 1453
1401 1389 1381 1380 1381 1391 1399 1404 1409 1410 1406 1407 1401 1404 1398 1399 1407 1413 1417 1422 1428 1433 1437 1441 1445 1450 1453 1456 1458 1460 1462 1463 1465 1466 1466 1466 1465 1463 1460 1458 1456 1454 1452 1449
1401 1394 1387 1391 1391 1390 1394 1396 1398 1402 1401 1401 1399 1396 1393 1398 1404 1410 1415 1419 1424 1429 1434 1439 1443 1447 1451 1454 1456 1458 1459 1461 1463 1463 1464 1463 1461 1459 1458 1456 1453 1451 1448 1444
1402 1398 1393 1391 1395 1398 1402 1389 1391 1395 1394 1396 1398 1395 1394 1403 1405 1410 1413 1418 1422 1427 1432 1436 1440 1445 1448 1451 1454 1455 1457 1459 1460 1461 1461 1460 1459 1457 1455 1453 1451 1447 1444 1440
1397 1397 1396 1399 1397 1409 1379 1382 1381 1385 1385 1387 1389 1390 1396 1400 1406 1411 1415 1419 1423 1427 1430 1434 1438 1442 1446 1449 1451 1454 1455 1457 1458 1458 1458 1457 1456 1454 1452 1450 1447 1443 1440 1436
1395 1401 1400 1402 1399 1385 1376 1383 1383 1382 1382 1382 1384 1389 1397 1404 1410 1417 1419 1421 1425 1428 1431 1434 1437 1440 1443 1446 1448 1451 1453 1454 1455 1455 1455 1454 1453 1451 1449 1446 1443 1439 1435 1430
1402 1398 1403 1404 1402 1398 1383 1383 1384 1382 1387 1372 1377 1386 1395 1405 1407 1411 1420 1422 1424 1426 1429 1432 1435 1438 1441 1444 1447 1450 1451 1452 1453 1453 1452 1451 1449 1448 1445 1442 1438 1434 1429 1424
1409 1410 1414 1415 1404 1389 1382 1386 1387 1392 1388 1384 1383 1387 1397 1403 1404 1410 1416 1421 1424 1426 1428 1431 1434 1437 1440 1443 1446 1448 1450 1450 1451 1449 1449 1448 1447 1444 1441 1438 1433 1429 1424 1420
1394 1403 1409 1407 1408 1406 1386 1390 1388 1389 1389 1389 1390 1395 1401 1406 1410 1413 1417 1420 1424 1426 1429 1431 1435 1437 1440 1443 1445 1446 1447 1448 1447 1447 1447 1446 1444 1441 1437 1433 1429 1425 1420 1416
1384 1377 1379 1380 1384 1387 1388 1389 1390 1391 1391 1394 1397 1400 1403 1407 1411 1414 1417 1421 1424 1427 1429 1432 1435 1437 1439 1442 1443 1444 1445 1445 1446 1445 1444 1443 1441 1438 1434 1429 1425 1421 1417 1412
1380 1381 1376 1381 1384 1386 1388 1390 1390 1392 1394 1397 1400 1402 1406 1409 1413 1416 1420 1422 1425 1427 1430 1432 1434 1436 1438 1440 1441 1442 1443 1444 1443 1443 1442 1440 1437 1433 1430 1426 1423 1418 1414 1409
1375 1379 1377 1381 1386 1387 1388 1389 1392 1394 1397 1399 1402 1405 1408 1411 1415 1417 1421 1424 1426 1428 1429 1431 1433 1435 1437 1438 1440 1441 1441 1441 1441 1440 1438 1436 1433 1429 1425 1422 1418 1414 1410 1406
1374 1370 1373 1370 1372 1376 1380 1387 1392 1395 1397 1400 1403 1407 1410 1413 1416 1419 1422 1424 1425 1427 1428 1431 1432 1434 1435 1437 1438 1439 1439 1438 1438 1437 1435 1432 1429 1426 1422 1418 1412 1410 1405 1401